[[{"header":{"parameterUnit":"m.s-1","parameterCategory":2,"la1":30.2991,"la2":30.254,"lo1":-89.0895,"lo2":-89.0444,"dy":0.0017,"dx":0.0017,"nx":28,"ny":28,"refTime":"2023-10-19T03:00:00:Z","depth":"0","parameterNumber":2,"parameterNumberName":"U-component_of_CURRENTS"},"data":[0,0,0,0,0,0,0,0,0,0,0,0,0,0,0,0,0,0,0,0,0,0,0,0,0,0,0,0,0,0,0,0,0,0,0,0,0,0,0,0,0,0,0,0,0,0,0,0,0,0,0,0,0,0,0,0,0,0,-0.1133,-0.1134,0,-0.1176,-0.1176,-0.1176,-0.1167,-0.1167,-0.1167,-0.1167,-0.1011,-0.1006,-0.1002,0,0,0,0,0,0,0,0,0,0,0,0,0,-0.0996,-0.0998,-0.1133,-0.1134,-0.1136,-0.1176,-0.1176,-0.1176,-0.1167,-0.1167,-0.1167,-0.1167,-0.1012,-0.1007,-0.1002,0,0,0,0,0,0,0,0,0,0,0,0,0,-0.1041,-0.0999,-0.1133,-0.1143,-0.1145,-0.1176,-0.1176,-0.1176,-0.1167,-0.1167,-0.1167,-0.1167,-0.1014,-0.1007,-0.1001,-0.0962,0,0,-0.0982,-0.0979,0,0,0,0,0,0,0,0,-0.1038,-0.1045,-0.114,-0.1142,-0.1145,-0.1174,-0.1071,-0.1097,-0.1167,-0.115,-0.1167,-0.1168,-0.1052,-0.1043,-0.1041,-0.0954,-0.0948,-0.0981,-0.0978,-0.0975,-0.0973,0,0,0,0,0,0,0,-0.1035,-0.1043,-0.1141,-0.1142,-0.1145,-0.113,-0.1135,-0.1076,-0.109,-0.1151,-0.1153,-0.1172,-0.1051,-0.1048,-0.1037,-0.0945,-0.0982,-0.0976,-0.0972,-0.097,-0.0849,-0.085,0,0,0,0,0,0,-0.105,-0.104,-0.114,-0.1143,-0.11,-0.1133,-0.1139,-0.1157,-0.1095,-0.109,-0.1172,-0.1171,-0.1058,-0.1045,-0.1031,-0.105,-0.0975,-0.0969,-0.0965,-0.0849,-0.0849,-0.085,0,0,0,0,0,0,-0.1047,-0.1059,-0.1138,-0.1099,-0.111,-0.1137,-0.1156,-0.1158,-0.1166,-0.1114,-0.1103,-0.118,-0.1058,-0.104,-0.0985,-0.1041,-0.0966,-0.096,-0.0848,-0.0849,-0.085,-0.1042,0,0,0,0,0,0,-0.1043,-0.1057,-0.1066,-0.1101,-0.1113,-0.117,-0.1158,-0.116,-0.1182,-0.1181,-0.1117,-0.1103,-0.1056,-0.0995,-0.0979,-0.1031,-0.0956,-0.0847,-0.0848,-0.0849,-0.1035,-0.105,-0.1062,0,0,0,0,0,-0.1038,-0.1057,-0.1065,-0.1078,-0.1127,-0.1172,-0.1176,-0.1188,-0.1182,-0.1192,-0.1143,-0.1105,-0.0991,-0.099,-0.0971,-0.1023,-0.0847,-0.0848,-0.0849,-0.1029,-0.1047,-0.1062,0,0,0,0,0,0,-0.1005,-0.1061,-0.107,-0.1105,-0.1143,-0.1174,-0.1188,-0.1196,-0.1169,-0.1161,-0.1099,-0.1081,-0.105,-0.0996,-0.0997,-0.0987,-0.0918,-0.0915,-0.1061,-0.1077,-0.109,-0.1119,-0.095,0,0,0,0,0,-0.1004,-0.1027,-0.1082,-0.1108,-0.1133,-0.1159,-0.1176,-0.1192,-0.1184,-0.1175,-0.1128,-0.1076,-0.104,-0.1026,-0.0964,-0.0957,-0.0941,-0.0978,-0.0992,-0.1004,-0.1012,-0.1051,-0.1071,-0.0854,-0.0854,-0.0854,0,0,-0.0999,-0.1032,-0.1045,-0.1102,-0.1128,-0.1172,-0.1168,-0.1208,-0.1243,-0.1155,-0.1155,-0.1102,-0.1038,-0.1034,-0.1019,-0.1003,-0.1057,-0.1006,-0.1017,-0.1018,-0.1055,-0.1076,-0.1096,-0.0855,-0.0855,-0.0855,0,0,-0.1016,-0.1034,-0.1069,-0.1103,-0.1161,-0.1181,-0.1199,-0.1235,-0.1251,-0.124,-0.1201,-0.1197,-0.1105,-0.1122,-0.1106,-0.1152,-0.1108,-0.1118,-0.1238,-0.1279,-0.1298,-0.1315,-0.1341,-0.1358,-0.1151,-0.1152,-0.1152,0,-0.101,-0.1059,-0.1085,-0.1134,-0.1166,-0.1191,-0.1241,-0.1267,-0.1275,-0.1296,-0.125,-0.1205,-0.1163,-0.1217,-0.1241,-0.1193,-0.1185,-0.1196,-0.1303,-0.1319,-0.1334,-0.1355,-0.1372,-0.1161,-0.116,-0.1159,-0.1158,0,-0.1061,-0.1098,-0.1124,-0.1188,-0.1225,-0.1267,-0.1323,-0.135,-0.1352,-0.1373,-0.1398,-0.1357,-0.1338,-0.1347,-0.1305,-0.1401,-0.1352,-0.1305,-0.1281,-0.1369,-0.1384,-0.1398,-0.1175,-0.1171,-0.1168,-0.1166,0,0,-0.1058,-0.1142,-0.115,-0.1191,-0.1256,-0.1299,-0.1364,-0.1438,-0.1494,-0.1495,-0.1557,-0.1551,-0.1535,-0.1517,-0.1499,-0.1562,-0.1674,-0.1487,-0.1485,-0.1545,-0.175,-0.162,-0.1622,-0.1645,-0.1648,-0.1651,-0.1729,0,-0.1091,-0.1168,-0.1211,-0.1289,-0.1335,-0.1386,-0.145,-0.1518,-0.1546,-0.1602,-0.1633,-0.1642,-0.1603,-0.16,-0.1666,-0.1643,-0.1715,-0.1656,-0.1625,-0.1624,-0.1526,-0.1637,-0.152,-0.157,-0.1743,-0.1745,-0.1747,0,-0.1135,-0.1175,-0.1245,-0.1348,-0.1379,-0.142,-0.1525,-0.1587,-0.1683,-0.171,-0.1757,-0.1743,-0.1829,-0.1765,-0.1844,-0.1798,-0.1791,-0.1793,-0.1795,-0.1613,-0.1521,-0.1501,-0.1589,-0.1571,-0.1768,-0.1766,-0.1765,0,-0.1113,-0.1212,-0.1259,-0.1288,-0.1399,-0.1443,-0.1495,-0.1598,-0.1654,-0.1756,-0.1785,-0.1872,-0.1882,-0.1919,-0.1887,-0.1872,-0.1952,-0.1927,-0.1823,-0.1813,-0.1675,-0.1647,-0.1765,-0.2004,-0.2004,-0.2004,-0.2004,0,-0.1132,-0.1176,-0.1242,-0.1268,-0.1336,-0.142,-0.15,-0.1581,-0.1673,-0.1741,-0.1812,-0.1861,-0.1914,-0.1941,-0.1937,-0.1906,-0.1986,-0.1865,-0.1836,-0.1734,-0.1712,-0.165,-0.1661,-0.2007,-0.2006,-0.2006,-0.2005,0,-0.1101,-0.1151,-0.1205,-0.1294,-0.1323,-0.1357,-0.1456,-0.1511,-0.1618,-0.1701,-0.1724,-0.1847,-0.1888,-0.1919,-0.1972,-0.1935,-0.1897,-0.1904,-0.1767,-0.172,-0.1591,-0.1616,-0.1687,-0.1642,-0.1839,-0.1836,-0.1834,0,-0.109,-0.1106,-0.118,-0.1194,-0.1221,-0.1279,-0.132,-0.1447,-0.1501,-0.1679,-0.1709,-0.1788,-0.182,-0.1851,-0.1808,-0.1792,-0.1808,-0.1679,-0.1638,-0.1593,-0.1601,-0.1632,-0.1592,-0.1552,-0.1547,-0.1544,-0.1541,0,-0.1038,-0.1052,-0.1082,-0.1101,-0.1129,-0.1185,-0.1248,-0.129,-0.145,-0.154,-0.1651,-0.169,-0.1714,-0.1645,-0.1598,-0.1578,-0.1621,-0.1603,-0.1614,-0.144,-0.1427,-0.1362,-0.1489,-0.1509,-0.1513,-0.1515,-0.1517,-0.1518,-0.0966,-0.0956,-0.0974,-0.0991,-0.1028,-0.1062,-0.1067,-0.1174,-0.1259,-0.1378,-0.1499,-0.153,-0.1504,-0.1419,-0.1388,-0.1287,-0.1385,-0.1264,-0.1318,-0.1371,-0.1266,-0.1304,-0.1237,-0.1239,-0.124,-0.1241,-0.1242,0,-0.0859,-0.0854,-0.0862,-0.0873,-0.0868,-0.0931,-0.0998,-0.0992,-0.1055,-0.1195,-0.1271,-0.1262,-0.1183,-0.1169,-0.1083,-0.103,-0.1031,-0.1031,-0.1084,-0.1071,-0.1151,-0.107,-0.0891,-0.0891,-0.0891,-0.0891,-0.0891,-0.0891,-0.08,-0.0756,-0.0759,-0.07,-0.0712,-0.0673,-0.0687,-0.071,-0.0773,-0.0828,-0.0872,-0.0885,-0.0954,-0.1073,-0.1001,-0.0946,-0.0962,-0.0916,-0.0983,-0.1059,-0.1086,-0.1112,-0.1041,-0.0859,-0.0859,-0.0838,-0.0838,-0.0838]},{"header":{"parameterUnit":"m.s-1","parameterCategory":2,"la1":30.2991,"la2":30.254,"lo1":-89.0895,"lo2":-89.0444,"dy":0.0017,"dx":0.0017,"nx":28,"ny":28,"refTime":"2023-10-19T03:00:00:Z","depth":"0","parameterNumber":3,"parameterNumberName":"V-component_of_CURRENTS"},"data":[0,0,0,0,0,0,0,0,0,0,0,0,0,0,0,0,0,0,0,0,0,0,0,0,0,0,0,0,0,0,0,0,0,0,0,0,0,0,0,0,0,0,0,0,0,0,0,0,0,0,0,0,0,0,0,0,0,0,0.0332,0.0334,0,0.0508,0.0511,0.0513,0.0606,0.0605,0.0605,0.0604,0.0803,0.0809,0.0814,0,0,0,0,0,0,0,0,0,0,0,0,0,0.0264,0.0265,0.0332,0.0334,0.0336,0.0508,0.0511,0.0514,0.0606,0.0605,0.0605,0.0604,0.0801,0.0808,0.0815,0,0,0,0,0,0,0,0,0,0,0,0,0,0.0358,0.0265,0.0332,0.0397,0.0405,0.0507,0.0511,0.0515,0.0606,0.0605,0.0605,0.0604,0.0799,0.0807,0.0816,0.0882,0,0,0.0842,0.0845,0,0,0,0,0,0,0,0,0.0352,0.0361,0.0386,0.0393,0.0401,0.0529,0.056,0.0636,0.0606,0.0536,0.0604,0.0604,0.071,0.0726,0.0769,0.0891,0.0899,0.0842,0.0848,0.0851,0.0854,0,0,0,0,0,0,0,0.0346,0.0355,0.0409,0.0388,0.0397,0.0482,0.0494,0.0576,0.063,0.0542,0.0548,0.0557,0.0715,0.076,0.0774,0.0902,0.0842,0.085,0.0855,0.0858,0.1079,0.108,0,0,0,0,0,0,0.0302,0.0348,0.0403,0.0413,0.0367,0.0482,0.0496,0.0494,0.0629,0.0647,0.0558,0.0561,0.0746,0.0764,0.0781,0.0857,0.0851,0.0859,0.0864,0.1079,0.108,0.108,0,0,0,0,0,0,0.0299,0.0304,0.0396,0.0381,0.0397,0.0482,0.0481,0.0497,0.0531,0.0639,0.0659,0.0571,0.0746,0.0769,0.0871,0.0865,0.0863,0.0871,0.1078,0.1079,0.108,0.1014,0,0,0,0,0,0,0.0297,0.0302,0.0291,0.0377,0.0396,0.0447,0.0481,0.0501,0.0536,0.0541,0.0658,0.0676,0.0748,0.0858,0.0879,0.0877,0.0878,0.1077,0.1078,0.108,0.1015,0.1012,0.101,0,0,0,0,0,0.0293,0.0269,0.0289,0.0296,0.0375,0.0447,0.0466,0.053,0.0536,0.0557,0.0648,0.0672,0.088,0.0867,0.0892,0.0891,0.1076,0.1078,0.108,0.1016,0.1013,0.101,0,0,0,0,0,0,0.0237,0.0278,0.0302,0.0292,0.0361,0.046,0.0475,0.0518,0.0606,0.0606,0.0705,0.0733,0.0813,0.0867,0.0849,0.0958,0.0973,0.0979,0.0916,0.0914,0.0911,0.0855,0.0885,0,0,0,0,0,0.0216,0.0206,0.0279,0.0274,0.0297,0.0384,0.0418,0.0464,0.0548,0.0585,0.0681,0.0767,0.0843,0.0888,0.0973,0.1045,0.1057,0.1054,0.1051,0.1049,0.102,0.1049,0.1046,0.1086,0.1086,0.1086,0,0,0.0196,0.0214,0.0212,0.0262,0.0314,0.0367,0.0404,0.0446,0.0494,0.0593,0.0693,0.077,0.0862,0.0946,0.0983,0.0988,0.1046,0.1051,0.1048,0.102,0.1051,0.1046,0.1042,0.1087,0.1087,0.1087,0,0,0.0152,0.0162,0.0147,0.0204,0.0266,0.0333,0.0336,0.0442,0.0485,0.0593,0.0661,0.0736,0.0882,0.094,0.0984,0.1018,0.1034,0.1036,0.098,0.1009,0.1005,0.1002,0.1009,0.1007,0.1032,0.1031,0.1031,0,0.0124,0.0127,0.0161,0.0182,0.0226,0.0311,0.0341,0.0407,0.0542,0.0559,0.0613,0.0783,0.0875,0.0929,0.0951,0.1009,0.1016,0.0982,0.1002,0.0999,0.0996,0.1005,0.1004,0.1028,0.1029,0.1029,0.1029,0,0.0093,0.011,0.0109,0.0165,0.0216,0.0257,0.0349,0.0398,0.0465,0.053,0.0604,0.074,0.0819,0.0867,0.0931,0.0947,0.0955,0.0995,0.0998,0.0987,0.0999,0.0998,0.1024,0.1025,0.1026,0.1027,0,0,0.0003,0.007,0.0075,0.0101,0.0213,0.0247,0.0305,0.0371,0.0365,0.0505,0.0514,0.0669,0.0701,0.0752,0.0829,0.087,0.0885,0.0916,0.0919,0.0901,0.0922,0.0879,0.0874,0.0921,0.0921,0.0921,0.0936,0,-0.002,-0.0001,0.0051,0.0104,0.0134,0.0219,0.0257,0.0316,0.0381,0.0419,0.0509,0.0569,0.0666,0.0693,0.0747,0.0858,0.0879,0.0875,0.0953,0.0954,0.09,0.0871,0.0913,0.0925,0.0935,0.0935,0.0935,0,-0.0055,-0.0034,-0.0006,0.0053,0.0066,0.0111,0.0148,0.0197,0.0246,0.028,0.0333,0.0406,0.0489,0.0574,0.0713,0.0702,0.0788,0.0873,0.0876,0.0849,0.0909,0.0941,0.0923,0.1067,0.0934,0.0934,0.0934,0,-0.0135,-0.0072,-0.0059,-0.0023,0.0055,0.0056,0.01,0.0143,0.0141,0.0185,0.0178,0.0281,0.0342,0.0461,0.0645,0.0671,0.0785,0.0849,0.0878,0.0876,0.0931,0.0933,0.104,0.0906,0.0906,0.0906,0.0906,0,-0.0172,-0.0156,-0.01,-0.0087,-0.0094,-0.0019,-0.0042,-0.0005,0.001,-0.0012,0.0093,0.0107,0.0317,0.0417,0.0576,0.0712,0.0729,0.0838,0.0868,0.091,0.091,0.1053,0.1114,0.0906,0.0906,0.0906,0.0906,0,-0.0236,-0.0202,-0.0182,-0.0132,-0.0127,-0.0127,-0.0115,-0.0148,-0.0122,-0.0147,-0.0142,-0.0023,0.0112,0.0293,0.0503,0.0616,0.083,0.0798,0.0816,0.0846,0.0985,0.1039,0.1104,0.1175,0.0817,0.0815,0.0814,0,-0.0256,-0.0259,-0.0228,-0.0237,-0.0208,-0.0211,-0.0235,-0.0211,-0.0239,-0.0219,-0.0238,-0.0134,-0.004,0.0222,0.0446,0.0652,0.0799,0.0785,0.0842,0.0964,0.105,0.1086,0.1145,0.0905,0.0904,0.0904,0.0904,0,-0.028,-0.028,-0.0264,-0.0293,-0.0312,-0.0342,-0.036,-0.041,-0.0397,-0.0405,-0.0358,-0.0281,-0.005,0.0217,0.0447,0.0594,0.0873,0.0784,0.0935,0.1118,0.1143,0.1236,0.0911,0.0903,0.0903,0.0903,0.0903,0.0904,-0.029,-0.0294,-0.0299,-0.0326,-0.0368,-0.0439,-0.0465,-0.0499,-0.0532,-0.0497,-0.0428,-0.0228,0.008,0.0426,0.0563,0.0874,0.0857,0.1012,0.1064,0.1087,0.1157,0.0786,0.0794,0.0793,0.0793,0.0792,0.0792,0,-0.028,-0.0302,-0.0335,-0.037,-0.0434,-0.0447,-0.0526,-0.0537,-0.0558,-0.0461,-0.0375,0.0072,0.035,0.0668,0.102,0.118,0.1258,0.1279,0.1402,0.1449,0.1162,0.117,0.1229,0.1229,0.1229,0.1229,0.1228,0.1228,-0.0277,-0.0307,-0.0333,-0.0416,-0.0451,-0.0513,-0.055,-0.0549,-0.0476,-0.0219,0.0097,0.0333,0.0759,0.117,0.1488,0.1526,0.1713,0.1669,0.1745,0.1623,0.1605,0.1588,0.1614,0.1765,0.1766,0.2059,0.2062,0.2065]}],[{"header":{"parameterUnit":"m.s-1","parameterCategory":2,"la1":30.2991,"la2":30.254,"lo1":-89.0895,"lo2":-89.0444,"dy":0.0017,"dx":0.0017,"nx":28,"ny":28,"refTime":"2023-10-19T03:00:00:Z","depth":"2","parameterNumber":2,"parameterNumberName":"U-component_of_CURRENTS"},"data":[0,0,0,0,0,0,0,0,0,0,0,0,0,0,0,0,0,0,0,0,0,0,0,0,0,0,0,0,0,0,0,0,0,0,0,0,0,0,0,0,0,0,0,0,0,0,0,0,0,0,0,0,0,0,0,0,0,0,-0.2423,-0.2423,0,-0.2394,-0.2394,-0.2394,-0.2374,-0.2374,-0.2373,-0.2373,-0.229,-0.2289,-0.2287,0,0,0,0,0,0,0,0,0,0,0,0,0,-0.2412,-0.2413,-0.2423,-0.2423,-0.2422,-0.2394,-0.2394,-0.2394,-0.2374,-0.2374,-0.2373,-0.2373,-0.2291,-0.2289,-0.2287,0,0,0,0,0,0,0,0,0,0,0,0,0,-0.2406,-0.2413,-0.2423,-0.2406,-0.2404,-0.2394,-0.2394,-0.2394,-0.2374,-0.2374,-0.2373,-0.2372,-0.2292,-0.2289,-0.2287,-0.2284,0,0,-0.2278,-0.2277,0,0,0,0,0,0,0,0,-0.2407,-0.2407,-0.2409,-0.2407,-0.2405,-0.2384,-0.236,-0.2353,-0.2375,-0.2389,-0.2373,-0.2372,-0.2315,-0.2311,-0.2312,-0.228,-0.2276,-0.2278,-0.2277,-0.2275,-0.2275,0,0,0,0,0,0,0,-0.2407,-0.2408,-0.2415,-0.2409,-0.2406,-0.2383,-0.2382,-0.2359,-0.2358,-0.2388,-0.2385,-0.2377,-0.2314,-0.2315,-0.231,-0.2275,-0.2278,-0.2276,-0.2274,-0.2273,-0.2215,-0.2215,0,0,0,0,0,0,-0.2408,-0.2409,-0.2416,-0.2414,-0.2401,-0.2384,-0.2383,-0.2394,-0.2359,-0.2353,-0.2378,-0.2376,-0.232,-0.2313,-0.2307,-0.2268,-0.2275,-0.2273,-0.2271,-0.2215,-0.2215,-0.2215,0,0,0,0,0,0,-0.2408,-0.241,-0.2417,-0.2407,-0.2406,-0.2385,-0.2397,-0.2394,-0.2394,-0.2352,-0.2345,-0.2381,-0.2319,-0.231,-0.229,-0.2266,-0.2272,-0.2269,-0.2215,-0.2215,-0.2215,-0.2212,0,0,0,0,0,0,-0.2409,-0.2411,-0.243,-0.2408,-0.2406,-0.2416,-0.2397,-0.2394,-0.2389,-0.2387,-0.2352,-0.2344,-0.2318,-0.2294,-0.2287,-0.2262,-0.2267,-0.2215,-0.2215,-0.2215,-0.2212,-0.2212,-0.2212,0,0,0,0,0,-0.2409,-0.2426,-0.2432,-0.2433,-0.2431,-0.2416,-0.2414,-0.2398,-0.239,-0.2395,-0.2371,-0.2345,-0.2289,-0.2292,-0.2284,-0.2258,-0.2215,-0.2215,-0.2215,-0.2212,-0.2212,-0.2212,0,0,0,0,0,0,-0.2431,-0.2425,-0.2431,-0.2448,-0.2438,-0.2412,-0.2411,-0.2403,-0.2391,-0.2385,-0.235,-0.2341,-0.2309,-0.2295,-0.2299,-0.2244,-0.2245,-0.2244,-0.2246,-0.2246,-0.2246,-0.227,-0.2265,0,0,0,0,0,-0.2447,-0.246,-0.2448,-0.2462,-0.2456,-0.2439,-0.2434,-0.2423,-0.2401,-0.2396,-0.2363,-0.2333,-0.2304,-0.2286,-0.226,-0.2236,-0.2241,-0.2214,-0.2214,-0.2214,-0.223,-0.2255,-0.226,-0.2215,-0.2215,-0.2215,0,0,-0.2459,-0.2457,-0.2465,-0.2468,-0.2457,-0.246,-0.2435,-0.2424,-0.2426,-0.2387,-0.2371,-0.2331,-0.23,-0.2267,-0.2251,-0.2251,-0.222,-0.2214,-0.2214,-0.223,-0.2256,-0.2261,-0.2265,-0.2215,-0.2215,-0.2215,0,0,-0.2468,-0.2487,-0.2493,-0.2495,-0.2482,-0.2474,-0.2474,-0.2446,-0.2433,-0.2412,-0.2381,-0.2341,-0.2293,-0.2267,-0.2249,-0.224,-0.222,-0.2215,-0.223,-0.2254,-0.2258,-0.2262,-0.2233,-0.2235,-0.2214,-0.2214,-0.2214,0,-0.248,-0.25,-0.2491,-0.2498,-0.2505,-0.2484,-0.2494,-0.2483,-0.245,-0.2443,-0.2407,-0.2343,-0.2297,-0.2279,-0.2254,-0.2238,-0.2236,-0.2228,-0.2255,-0.2259,-0.2263,-0.2234,-0.2235,-0.2214,-0.2214,-0.2214,-0.2214,0,-0.249,-0.2518,-0.2517,-0.2532,-0.2536,-0.2541,-0.2527,-0.252,-0.249,-0.2473,-0.2435,-0.2372,-0.2337,-0.2299,-0.2261,-0.2257,-0.2238,-0.2252,-0.2256,-0.2268,-0.2235,-0.2237,-0.2214,-0.2214,-0.2214,-0.2214,0,0,-0.2481,-0.2519,-0.2522,-0.2551,-0.2559,-0.2565,-0.2569,-0.2569,-0.2581,-0.252,-0.2516,-0.2431,-0.2389,-0.2367,-0.2311,-0.2306,-0.2289,-0.228,-0.2282,-0.2254,-0.2307,-0.2154,-0.2141,-0.2313,-0.2314,-0.2315,-0.2257,0,-0.2492,-0.2531,-0.254,-0.2587,-0.2611,-0.2613,-0.2624,-0.2624,-0.2603,-0.259,-0.2525,-0.2493,-0.242,-0.2382,-0.2368,-0.2315,-0.2302,-0.2302,-0.23,-0.2299,-0.2164,-0.2141,-0.2004,-0.193,-0.2259,-0.2259,-0.226,0,-0.2491,-0.253,-0.2569,-0.2638,-0.2645,-0.2656,-0.2688,-0.2695,-0.2683,-0.2659,-0.2622,-0.2579,-0.2524,-0.2473,-0.2412,-0.2415,-0.236,-0.2322,-0.232,-0.2188,-0.215,-0.198,-0.1921,-0.2263,-0.2263,-0.2262,-0.2262,0,-0.2491,-0.2553,-0.2592,-0.2614,-0.2671,-0.2675,-0.269,-0.2699,-0.2706,-0.2694,-0.2677,-0.2647,-0.2576,-0.2557,-0.241,-0.2436,-0.2336,-0.2379,-0.2195,-0.2182,-0.207,-0.2045,-0.2367,-0.2367,-0.2367,-0.2367,-0.2367,0,-0.25,-0.254,-0.259,-0.2616,-0.266,-0.2684,-0.2709,-0.2722,-0.2723,-0.2697,-0.2695,-0.2632,-0.2595,-0.2509,-0.2442,-0.2272,-0.2361,-0.2187,-0.2162,-0.2057,-0.2032,-0.2341,-0.2339,-0.2365,-0.2365,-0.2366,-0.2366,0,-0.2487,-0.2523,-0.2581,-0.2643,-0.2655,-0.2676,-0.2705,-0.2713,-0.2723,-0.2681,-0.2669,-0.2615,-0.2478,-0.241,-0.2323,-0.2258,-0.2164,-0.2085,-0.1918,-0.1874,-0.2002,-0.2,-0.1941,-0.1935,-0.193,-0.1926,-0.1923,0,-0.2486,-0.2514,-0.2587,-0.2595,-0.2608,-0.264,-0.2641,-0.2686,-0.2672,-0.2622,-0.2572,-0.2462,-0.2286,-0.2099,-0.199,-0.1861,-0.1957,-0.1691,-0.1729,-0.1978,-0.1961,-0.1967,-0.1972,-0.1571,-0.1565,-0.156,-0.1556,0,-0.248,-0.2495,-0.2521,-0.2549,-0.2551,-0.2574,-0.2564,-0.2556,-0.2549,-0.2461,-0.228,-0.2149,-0.1972,-0.1735,-0.1597,-0.1528,-0.1715,-0.1584,-0.1903,-0.1685,-0.162,-0.1606,-0.1626,-0.1512,-0.1516,-0.1519,-0.1522,-0.1524,-0.2437,-0.2446,-0.2454,-0.2463,-0.2474,-0.2424,-0.2372,-0.2308,-0.2189,-0.1995,-0.1986,-0.1724,-0.169,-0.1369,-0.1255,-0.121,-0.1349,-0.1347,-0.1367,-0.1391,-0.1344,-0.1273,-0.1088,-0.1089,-0.1091,-0.1093,-0.1094,0,-0.2333,-0.2348,-0.2362,-0.234,-0.2274,-0.2335,-0.2254,-0.2105,-0.1837,-0.1711,-0.1498,-0.1256,-0.108,-0.1066,-0.0917,-0.0888,-0.0939,-0.0869,-0.0957,-0.0999,-0.1037,-0.0978,-0.0622,-0.0621,-0.0619,-0.0618,0,0,-0.2268,-0.2212,-0.2211,-0.2088,-0.2091,-0.1933,-0.1838,-0.1599,-0.1442,-0.1131,-0.0995,-0.1025,-0.1029,-0.0829,-0.0775,-0.0672,-0.0836,-0.0637,-0.1015,-0.116,-0.1197,-0.1305,-0.1257,0,0,0,0,0]},{"header":{"parameterUnit":"m.s-1","parameterCategory":2,"la1":30.2991,"la2":30.254,"lo1":-89.0895,"lo2":-89.0444,"dy":0.0017,"dx":0.0017,"nx":28,"ny":28,"refTime":"2023-10-19T03:00:00:Z","depth":"2","parameterNumber":3,"parameterNumberName":"V-component_of_CURRENTS"},"data":[0,0,0,0,0,0,0,0,0,0,0,0,0,0,0,0,0,0,0,0,0,0,0,0,0,0,0,0,0,0,0,0,0,0,0,0,0,0,0,0,0,0,0,0,0,0,0,0,0,0,0,0,0,0,0,0,0,0,-0.0235,-0.0235,0,-0.0203,-0.0203,-0.0203,-0.0187,-0.0187,-0.0187,-0.0187,-0.0161,-0.016,-0.0159,0,0,0,0,0,0,0,0,0,0,0,0,0,-0.026,-0.0259,-0.0235,-0.0235,-0.0235,-0.0203,-0.0203,-0.0203,-0.0187,-0.0187,-0.0187,-0.0187,-0.0161,-0.016,-0.0159,0,0,0,0,0,0,0,0,0,0,0,0,0,-0.0241,-0.0259,-0.0236,-0.0223,-0.0221,-0.0204,-0.0203,-0.0203,-0.0187,-0.0187,-0.0187,-0.0187,-0.0161,-0.016,-0.0159,-0.0154,0,0,-0.0156,-0.0156,0,0,0,0,0,0,0,0,-0.0242,-0.024,-0.0225,-0.0224,-0.0222,-0.0199,-0.0202,-0.0186,-0.0187,-0.02,-0.0187,-0.0187,-0.0174,-0.0172,-0.0166,-0.0152,-0.0151,-0.0156,-0.0155,-0.0155,-0.0155,0,0,0,0,0,0,0,-0.0243,-0.0241,-0.0223,-0.0225,-0.0223,-0.0211,-0.0208,-0.0199,-0.0188,-0.0199,-0.0198,-0.0194,-0.0173,-0.0167,-0.0165,-0.0151,-0.0156,-0.0155,-0.0155,-0.0154,-0.0137,-0.0138,0,0,0,0,0,0,-0.0248,-0.0243,-0.0224,-0.0222,-0.0232,-0.021,-0.0208,-0.0207,-0.0188,-0.0185,-0.0194,-0.0193,-0.0169,-0.0167,-0.0164,-0.0167,-0.0155,-0.0154,-0.0153,-0.0137,-0.0137,-0.0138,0,0,0,0,0,0,-0.0249,-0.0247,-0.0225,-0.0231,-0.0228,-0.021,-0.0209,-0.0206,-0.0206,-0.0184,-0.0181,-0.0198,-0.0169,-0.0166,-0.0163,-0.0166,-0.0154,-0.0153,-0.0137,-0.0137,-0.0138,-0.0167,0,0,0,0,0,0,-0.025,-0.0247,-0.0253,-0.0232,-0.0227,-0.0224,-0.0209,-0.0205,-0.0203,-0.0202,-0.0186,-0.0183,-0.0169,-0.0164,-0.0162,-0.0164,-0.0152,-0.0137,-0.0137,-0.0137,-0.0165,-0.0168,-0.017,0,0,0,0,0,-0.0251,-0.026,-0.0253,-0.0251,-0.0234,-0.0224,-0.0221,-0.0208,-0.0204,-0.0208,-0.0196,-0.0184,-0.0164,-0.0164,-0.0161,-0.0163,-0.0137,-0.0137,-0.0137,-0.0164,-0.0167,-0.017,0,0,0,0,0,0,-0.0283,-0.0259,-0.0251,-0.0255,-0.0244,-0.0222,-0.0226,-0.0215,-0.0208,-0.0211,-0.0188,-0.0185,-0.0187,-0.017,-0.017,-0.0159,-0.0148,-0.0148,-0.0169,-0.0172,-0.0174,-0.0165,-0.0151,0,0,0,0,0,-0.029,-0.0287,-0.0265,-0.0271,-0.0267,-0.0247,-0.0243,-0.0235,-0.0223,-0.0221,-0.0209,-0.0196,-0.0185,-0.0175,-0.017,-0.016,-0.0101,-0.0158,-0.016,-0.0162,-0.0153,-0.0057,-0.0049,-0.0139,-0.0139,-0.0139,0,0,-0.0309,-0.0292,-0.0293,-0.0277,-0.0268,-0.0268,-0.0246,-0.0246,-0.0245,-0.0219,-0.0223,-0.0212,-0.0187,-0.0182,-0.0179,-0.0166,-0.0107,-0.0163,-0.0165,-0.0154,-0.0057,-0.0048,-0.0039,-0.0139,-0.0139,-0.0139,0,0,-0.034,-0.0325,-0.0333,-0.0322,-0.0307,-0.0291,-0.0294,-0.0278,-0.0271,-0.0273,-0.0251,-0.0232,-0.023,-0.0196,-0.0181,-0.0188,-0.0131,-0.0197,-0.019,-0.0098,-0.0089,-0.008,0.0006,0.0023,-0.0187,-0.0187,-0.0187,0,-0.0366,-0.0365,-0.0337,-0.0339,-0.0334,-0.0305,-0.0316,-0.0301,-0.0288,-0.0276,-0.0284,-0.0245,-0.023,-0.0187,-0.0194,-0.0191,-0.0132,-0.0183,-0.0098,-0.0088,-0.0079,0.0008,0.0026,-0.0189,-0.0189,-0.0188,-0.0188,0,-0.0395,-0.0398,-0.0403,-0.039,-0.0383,-0.0388,-0.036,-0.0353,-0.0344,-0.0324,-0.0299,-0.0267,-0.0235,-0.023,-0.0218,-0.0148,-0.0126,-0.0119,-0.0088,-0.0071,0.0018,0.0038,-0.0191,-0.019,-0.019,-0.0189,0,0,-0.0454,-0.0429,-0.0434,-0.0435,-0.041,-0.0409,-0.0398,-0.0374,-0.0359,-0.034,-0.0305,-0.0282,-0.0252,-0.0232,-0.0199,-0.0118,-0.0009,-0.0095,-0.0089,-0.0003,0.02,0.0109,0.0122,0.0016,0.0019,0.0022,0.0236,0,-0.0491,-0.0506,-0.0478,-0.0497,-0.0506,-0.0464,-0.0452,-0.0423,-0.0395,-0.0352,-0.0289,-0.0257,-0.0254,-0.0232,-0.0152,-0.0043,0.0042,-0.0068,0.0166,0.0173,0.0095,0.0141,0.0137,0.0318,0.0256,0.026,0.0262,0,-0.0535,-0.0535,-0.056,-0.0543,-0.0542,-0.0547,-0.0512,-0.0498,-0.0419,-0.0388,-0.0326,-0.0272,-0.0158,-0.016,0.0054,-0.0015,0.0085,0.0172,0.0183,0.0123,0.0118,0.0291,0.0357,0.0296,0.0294,0.0291,0.0289,0,-0.0595,-0.0595,-0.0615,-0.0612,-0.0586,-0.0589,-0.0578,-0.0521,-0.049,-0.0403,-0.0347,-0.0231,-0.0143,-0.0004,0.0136,0.0119,0.0376,0.0381,0.04,0.0396,0.045,0.0443,0.054,0.054,0.054,0.0539,0.0538,0,-0.0644,-0.0667,-0.065,-0.0664,-0.0687,-0.065,-0.065,-0.0616,-0.053,-0.0468,-0.0371,-0.0284,-0.0097,0.0055,0.0172,0.0336,0.0409,0.0417,0.0449,0.0434,0.0424,0.0443,0.0429,0.0547,0.0545,0.0544,0.0542,0,-0.072,-0.0702,-0.0733,-0.0721,-0.0722,-0.0748,-0.0708,-0.0685,-0.0596,-0.0498,-0.0458,-0.0277,-0.0105,0.006,0.0304,0.0385,0.0544,0.0577,0.0528,0.0546,0.0506,0.0488,0.0663,0.0662,0.0661,0.066,0.0659,0,-0.0765,-0.0786,-0.0795,-0.0815,-0.0821,-0.0835,-0.0825,-0.0745,-0.0687,-0.0498,-0.043,-0.0253,-0.0143,0.015,0.032,0.0513,0.0517,0.0621,0.0567,0.0507,0.0522,0.0505,0.0489,0.0658,0.0657,0.0657,0.0656,0,-0.0856,-0.0856,-0.0874,-0.0913,-0.0924,-0.0911,-0.0877,-0.083,-0.0691,-0.0606,-0.0468,-0.0378,-0.0102,0.0091,0.0322,0.0436,0.058,0.0608,0.0631,0.0569,0.0504,0.0515,0.0501,0.0651,0.0651,0.0652,0.0652,0.0652,-0.0929,-0.0965,-0.0979,-0.1017,-0.1014,-0.0976,-0.0957,-0.0878,-0.0804,-0.0625,-0.052,-0.035,-0.0121,0.0173,0.0338,0.0508,0.0511,0.0596,0.06,0.0604,0.0506,0.0436,0.0555,0.0555,0.0555,0.0555,0.0555,0,-0.1004,-0.1038,-0.1079,-0.1094,-0.1085,-0.1061,-0.0971,-0.0914,-0.0838,-0.0664,-0.0555,-0.0312,-0.0071,0.0148,0.0403,0.0541,0.0575,0.0567,0.0607,0.0611,0.0615,0.0519,0.0572,0.0572,0.0572,0.0572,0,0,-0.1048,-0.1101,-0.1114,-0.1144,-0.1145,-0.1101,-0.1046,-0.0957,-0.0818,-0.0692,-0.0543,-0.0315,-0.0044,0.014,0.0325,0.0455,0.0495,0.0467,0.0444,0.0474,0.0476,0.0625,0.0479,0,0,0,0,0]}],[{"header":{"parameterUnit":"m.s-1","parameterCategory":2,"la1":30.2991,"la2":30.254,"lo1":-89.0895,"lo2":-89.0444,"dy":0.0017,"dx":0.0017,"nx":28,"ny":28,"refTime":"2023-10-19T03:00:00:Z","depth":"4","parameterNumber":2,"parameterNumberName":"U-component_of_CURRENTS"},"data":[0,0,0,0,0,0,0,0,0,0,0,0,0,0,0,0,0,0,0,0,0,0,0,0,0,0,0,0,0,0,0,0,0,0,0,0,0,0,0,0,0,0,0,0,0,0,0,0,0,0,0,0,0,0,0,0,0,0,-0.1039,-0.104,0,-0.1117,-0.1118,-0.1119,-0.1154,-0.1154,-0.1154,-0.1154,-0.1198,-0.1199,-0.12,0,0,0,0,0,0,0,0,0,0,0,0,0,-0.0928,-0.0929,-0.1039,-0.104,-0.1041,-0.1117,-0.1118,-0.1119,-0.1154,-0.1154,-0.1154,-0.1154,-0.1198,-0.1199,-0.12,0,0,0,0,0,0,0,0,0,0,0,0,0,-0.0987,-0.093,-0.1038,-0.1069,-0.1072,-0.1117,-0.1118,-0.1119,-0.1154,-0.1154,-0.1154,-0.1154,-0.1197,-0.1199,-0.12,-0.121,0,0,-0.1206,-0.1206,0,0,0,0,0,0,0,0,-0.0983,-0.099,-0.1063,-0.1067,-0.1071,-0.1127,-0.1095,-0.1148,-0.1154,-0.1122,-0.1154,-0.1154,-0.1172,-0.1176,-0.1189,-0.1212,-0.1214,-0.1206,-0.1207,-0.1208,-0.1208,0,0,0,0,0,0,0,-0.0979,-0.0987,-0.1068,-0.1064,-0.1069,-0.1081,-0.1089,-0.1105,-0.1144,-0.1124,-0.1128,-0.1139,-0.1174,-0.1187,-0.119,-0.1214,-0.1206,-0.1207,-0.1208,-0.1209,-0.1286,-0.1287,0,0,0,0,0,0,-0.0972,-0.0984,-0.1066,-0.1071,-0.1028,-0.1083,-0.1092,-0.1108,-0.1144,-0.1151,-0.1138,-0.114,-0.1184,-0.1188,-0.1192,-0.125,-0.1208,-0.1209,-0.121,-0.1285,-0.1286,-0.1287,0,0,0,0,0,0,-0.0969,-0.0979,-0.1063,-0.103,-0.1041,-0.1085,-0.1102,-0.1109,-0.1143,-0.1156,-0.1161,-0.1167,-0.1184,-0.1189,-0.1227,-0.125,-0.121,-0.1211,-0.1283,-0.1285,-0.1286,-0.1337,0,0,0,0,0,0,-0.0966,-0.0977,-0.0993,-0.1029,-0.1043,-0.1104,-0.1103,-0.1111,-0.1149,-0.1153,-0.1182,-0.1185,-0.1185,-0.1225,-0.1229,-0.1251,-0.1213,-0.1282,-0.1284,-0.1286,-0.1334,-0.134,-0.1345,0,0,0,0,0,-0.0962,-0.0986,-0.0994,-0.1004,-0.1061,-0.1105,-0.1114,-0.1143,-0.1151,-0.1172,-0.1193,-0.1185,-0.1239,-0.1227,-0.1232,-0.1255,-0.1281,-0.1284,-0.1286,-0.1331,-0.1339,-0.1345,0,0,0,0,0,0,-0.0948,-0.0993,-0.1002,-0.1039,-0.1074,-0.1112,-0.114,-0.1156,-0.1191,-0.1197,-0.1204,-0.1209,-0.125,-0.1246,-0.1233,-0.1282,-0.1257,-0.126,-0.129,-0.1297,-0.1302,-0.1289,-0.1214,0,0,0,0,0,-0.0951,-0.0977,-0.102,-0.1048,-0.1073,-0.1108,-0.1133,-0.1152,-0.1184,-0.1201,-0.1222,-0.1241,-0.126,-0.1274,-0.129,-0.1321,-0.1306,-0.1336,-0.1342,-0.1347,-0.1339,-0.1375,-0.1383,-0.1295,-0.1295,-0.1294,0,0,-0.095,-0.0979,-0.0994,-0.1046,-0.1079,-0.1116,-0.1124,-0.1169,-0.1196,-0.1199,-0.125,-0.1266,-0.1274,-0.1309,-0.1326,-0.1311,-0.1356,-0.135,-0.1354,-0.1343,-0.1378,-0.1387,-0.1394,-0.1296,-0.1296,-0.1296,0,0,-0.0965,-0.0995,-0.1027,-0.1059,-0.1112,-0.1133,-0.115,-0.1202,-0.1227,-0.127,-0.128,-0.1316,-0.1344,-0.1361,-0.1368,-0.1415,-0.1388,-0.1416,-0.1434,-0.147,-0.1477,-0.1484,-0.1441,-0.1443,-0.1416,-0.1417,-0.1417,0,-0.0969,-0.1007,-0.1042,-0.1082,-0.111,-0.1143,-0.1182,-0.1211,-0.1266,-0.1286,-0.1291,-0.1351,-0.1367,-0.1406,-0.1421,-0.1429,-0.1415,-0.141,-0.1477,-0.1484,-0.149,-0.1444,-0.1446,-0.1419,-0.1419,-0.1419,-0.1418,0,-0.1003,-0.104,-0.1065,-0.112,-0.1154,-0.1193,-0.1236,-0.1273,-0.1301,-0.1323,-0.1377,-0.1407,-0.1443,-0.1453,-0.145,-0.1499,-0.1461,-0.1484,-0.146,-0.1502,-0.145,-0.1452,-0.1423,-0.1422,-0.1421,-0.1421,0,0,-0.0996,-0.1075,-0.1085,-0.1111,-0.1177,-0.1206,-0.1256,-0.1306,-0.1335,-0.1382,-0.1414,-0.1468,-0.1489,-0.1498,-0.1513,-0.1534,-0.1559,-0.1523,-0.1524,-0.1478,-0.1579,-0.1495,-0.1487,-0.1601,-0.1603,-0.1604,-0.1513,0,-0.1015,-0.1087,-0.1122,-0.1175,-0.1213,-0.1254,-0.1292,-0.1336,-0.1375,-0.1411,-0.1444,-0.1488,-0.1505,-0.1531,-0.1561,-0.1555,-0.157,-0.1577,-0.1546,-0.1544,-0.1465,-0.149,-0.1608,-0.1513,-0.1514,-0.1514,-0.1514,0,-0.1035,-0.1078,-0.1144,-0.1199,-0.1221,-0.1256,-0.1319,-0.1356,-0.1407,-0.1442,-0.1493,-0.1515,-0.1551,-0.157,-0.159,-0.1592,-0.1594,-0.1585,-0.1582,-0.1488,-0.1465,-0.1472,-0.1516,-0.1515,-0.1515,-0.1515,-0.1515,0,-0.1005,-0.1087,-0.1136,-0.116,-0.1233,-0.1267,-0.1304,-0.1367,-0.1391,-0.1468,-0.1484,-0.1542,-0.1546,-0.1587,-0.1589,-0.1594,-0.1582,-0.1592,-0.1512,-0.1502,-0.1581,-0.1575,-0.1627,-0.1627,-0.1627,-0.1628,-0.1628,0,-0.0998,-0.1034,-0.113,-0.1152,-0.1197,-0.1256,-0.1303,-0.1355,-0.1403,-0.1414,-0.1501,-0.1516,-0.1557,-0.1558,-0.1578,-0.153,-0.1589,-0.1501,-0.1488,-0.1597,-0.1595,-0.1578,-0.1574,-0.1624,-0.1625,-0.1626,-0.1626,0,-0.0947,-0.1017,-0.107,-0.1158,-0.1184,-0.1216,-0.1283,-0.1301,-0.1377,-0.139,-0.1412,-0.1464,-0.1474,-0.1498,-0.1516,-0.1483,-0.1479,-0.1464,-0.1525,-0.1519,-0.136,-0.1359,-0.1322,-0.1319,-0.1316,-0.1314,-0.1312,0,-0.0931,-0.0957,-0.1057,-0.1082,-0.1123,-0.1179,-0.1199,-0.128,-0.1292,-0.1357,-0.1337,-0.1366,-0.1401,-0.1332,-0.1393,-0.1394,-0.1412,-0.1363,-0.1405,-0.1344,-0.1336,-0.134,-0.1343,-0.1307,-0.1306,-0.1306,-0.1305,0,-0.0881,-0.0926,-0.0968,-0.1017,-0.1054,-0.1081,-0.1121,-0.1121,-0.1191,-0.1256,-0.125,-0.1263,-0.1246,-0.1265,-0.1269,-0.1293,-0.1367,-0.1333,-0.1339,-0.1378,-0.1326,-0.1321,-0.1327,-0.1295,-0.1296,-0.1297,-0.1298,0,-0.0841,-0.0854,-0.0909,-0.0939,-0.0978,-0.0971,-0.1011,-0.1021,-0.1045,-0.1119,-0.1114,-0.118,-0.1223,-0.1213,-0.1239,-0.1229,-0.1217,-0.1177,-0.1192,-0.1203,-0.1215,-0.1135,-0.1025,0,0,0,0,0,-0.0791,-0.0792,-0.0818,-0.0846,-0.0872,-0.0888,-0.0941,-0.0979,-0.1048,-0.101,-0.1061,-0.1074,-0.1087,-0.1132,-0.1099,-0.1182,-0.1218,-0.1137,-0.1179,-0.124,-0.1252,-0.1283,0,0,0,0,0,0,-0.0757,-0.0781,-0.079,-0.0752,-0.0744,-0.0753,-0.0789,-0.0835,-0.0834,-0.0916,-0.0942,-0.0996,-0.104,-0.1087,-0.1072,-0.1082,-0.1084,-0.1181,-0.1178,-0.1234,-0.1244,-0.1253,-0.1289,0,0,0,0,0]},{"header":{"parameterUnit":"m.s-1","parameterCategory":2,"la1":30.2991,"la2":30.254,"lo1":-89.0895,"lo2":-89.0444,"dy":0.0017,"dx":0.0017,"nx":28,"ny":28,"refTime":"2023-10-19T03:00:00:Z","depth":"4","parameterNumber":3,"parameterNumberName":"V-component_of_CURRENTS"},"data":[0,0,0,0,0,0,0,0,0,0,0,0,0,0,0,0,0,0,0,0,0,0,0,0,0,0,0,0,0,0,0,0,0,0,0,0,0,0,0,0,0,0,0,0,0,0,0,0,0,0,0,0,0,0,0,0,0,0,-0.024,-0.0239,0,-0.0201,-0.0201,-0.0201,-0.0187,-0.0187,-0.0187,-0.0187,-0.0135,-0.0134,-0.0132,0,0,0,0,0,0,0,0,0,0,0,0,0,-0.025,-0.025,-0.024,-0.0239,-0.0239,-0.0202,-0.0201,-0.0201,-0.0187,-0.0187,-0.0187,-0.0187,-0.0136,-0.0134,-0.0132,0,0,0,0,0,0,0,0,0,0,0,0,0,-0.0233,-0.025,-0.024,-0.0227,-0.0225,-0.0202,-0.0201,-0.02,-0.0187,-0.0187,-0.0187,-0.0187,-0.0136,-0.0134,-0.0132,-0.0116,0,0,-0.0125,-0.0124,0,0,0,0,0,0,0,0,-0.0234,-0.0233,-0.0229,-0.0228,-0.0226,-0.0199,-0.0186,-0.0171,-0.0187,-0.0202,-0.0187,-0.0187,-0.0155,-0.0151,-0.0145,-0.0114,-0.0112,-0.0125,-0.0124,-0.0123,-0.0122,0,0,0,0,0,0,0,-0.0235,-0.0234,-0.0225,-0.0229,-0.0227,-0.0205,-0.0204,-0.0183,-0.0178,-0.0201,-0.02,-0.0194,-0.0154,-0.0147,-0.0143,-0.0111,-0.0125,-0.0123,-0.0122,-0.0121,-0.0097,-0.0098,0,0,0,0,0,0,-0.0241,-0.0235,-0.0226,-0.0224,-0.023,-0.0205,-0.0203,-0.0208,-0.0179,-0.0175,-0.0194,-0.0194,-0.015,-0.0146,-0.0141,-0.0153,-0.0123,-0.0121,-0.012,-0.0096,-0.0097,-0.0098,0,0,0,0,0,0,-0.0242,-0.0241,-0.0228,-0.0228,-0.0224,-0.0205,-0.021,-0.0207,-0.0201,-0.0174,-0.017,-0.0192,-0.015,-0.0144,-0.0132,-0.015,-0.012,-0.0118,-0.0095,-0.0096,-0.0097,-0.0156,0,0,0,0,0,0,-0.0242,-0.0242,-0.0247,-0.0228,-0.0225,-0.0219,-0.021,-0.0206,-0.0197,-0.0196,-0.017,-0.0165,-0.015,-0.0135,-0.013,-0.0146,-0.0116,-0.0095,-0.0096,-0.0097,-0.0153,-0.0159,-0.0164,0,0,0,0,0,-0.0243,-0.0246,-0.0248,-0.0247,-0.0233,-0.0219,-0.0215,-0.0202,-0.0197,-0.0197,-0.0183,-0.0166,-0.0139,-0.0134,-0.0127,-0.0144,-0.0094,-0.0096,-0.0097,-0.0151,-0.0158,-0.0164,0,0,0,0,0,0,-0.0253,-0.0245,-0.0246,-0.0248,-0.0238,-0.0217,-0.0211,-0.0203,-0.0191,-0.0191,-0.0168,-0.0163,-0.0162,-0.0141,-0.0135,-0.0141,-0.0116,-0.0117,-0.016,-0.0166,-0.0171,-0.0188,-0.0114,0,0,0,0,0,-0.0259,-0.0263,-0.025,-0.0253,-0.0247,-0.0231,-0.0223,-0.0216,-0.0201,-0.0196,-0.0181,-0.0167,-0.0162,-0.0154,-0.0143,-0.0137,-0.0118,-0.0146,-0.0151,-0.0156,-0.0165,-0.0166,-0.0172,-0.0103,-0.0103,-0.0103,0,0,-0.0267,-0.026,-0.0265,-0.0256,-0.0246,-0.0248,-0.0226,-0.0217,-0.0227,-0.0192,-0.0198,-0.0182,-0.0165,-0.0169,-0.0167,-0.0153,-0.016,-0.0158,-0.0162,-0.0169,-0.0168,-0.0175,-0.0181,-0.0104,-0.0104,-0.0103,0,0,-0.0277,-0.0276,-0.028,-0.0276,-0.0263,-0.0256,-0.0256,-0.0238,-0.0239,-0.0239,-0.0225,-0.0224,-0.0203,-0.0204,-0.02,-0.0225,-0.019,-0.0217,-0.0255,-0.0255,-0.0261,-0.0266,-0.0229,-0.0231,-0.0218,-0.0218,-0.0218,0,-0.0287,-0.0294,-0.0279,-0.028,-0.0286,-0.0264,-0.0277,-0.0272,-0.0257,-0.0265,-0.025,-0.0247,-0.0228,-0.0247,-0.0257,-0.0239,-0.0218,-0.0233,-0.0263,-0.0268,-0.0272,-0.0233,-0.0234,-0.0221,-0.0221,-0.022,-0.022,0,-0.0298,-0.0309,-0.0309,-0.0315,-0.0318,-0.0321,-0.0319,-0.0323,-0.032,-0.0319,-0.0333,-0.0312,-0.0312,-0.0307,-0.0288,-0.0312,-0.0278,-0.0272,-0.0249,-0.0283,-0.0239,-0.0239,-0.0225,-0.0224,-0.0223,-0.0222,0,0,-0.031,-0.0318,-0.032,-0.034,-0.034,-0.0348,-0.0367,-0.0382,-0.0402,-0.0392,-0.0424,-0.0413,-0.0397,-0.0392,-0.0369,-0.0368,-0.0368,-0.0333,-0.0331,-0.03,-0.034,-0.0236,-0.0225,-0.0367,-0.0368,-0.0369,-0.029,0,-0.0327,-0.0349,-0.0349,-0.0388,-0.0403,-0.0406,-0.0432,-0.0445,-0.0447,-0.0469,-0.0461,-0.0472,-0.0431,-0.0431,-0.0427,-0.0391,-0.0374,-0.0388,-0.031,-0.0307,-0.0214,-0.0224,-0.0372,-0.0289,-0.0289,-0.0289,-0.0289,0,-0.0338,-0.0356,-0.0394,-0.044,-0.0448,-0.0471,-0.0515,-0.0532,-0.0551,-0.0554,-0.056,-0.0544,-0.0544,-0.0507,-0.0459,-0.0468,-0.0407,-0.0372,-0.0368,-0.0254,-0.0203,-0.0253,-0.0288,-0.0288,-0.0288,-0.0288,-0.0288,0,-0.0358,-0.0392,-0.043,-0.0444,-0.0484,-0.0513,-0.0537,-0.056,-0.0582,-0.0604,-0.0611,-0.0611,-0.0601,-0.0557,-0.0448,-0.0465,-0.0376,-0.0392,-0.0237,-0.0227,-0.032,-0.0316,-0.0356,-0.0356,-0.0356,-0.0356,-0.0357,0,-0.0378,-0.0411,-0.0446,-0.0468,-0.053,-0.0545,-0.0603,-0.0619,-0.0646,-0.0667,-0.0651,-0.0645,-0.0613,-0.0545,-0.0468,-0.0325,-0.0381,-0.024,-0.0207,-0.0341,-0.0341,-0.0318,-0.0314,-0.0353,-0.0354,-0.0355,-0.0355,0,-0.0396,-0.0414,-0.0465,-0.0518,-0.0539,-0.0585,-0.0645,-0.0676,-0.0684,-0.0709,-0.0715,-0.068,-0.0573,-0.0486,-0.0394,-0.0325,-0.0219,-0.0145,-0.0256,-0.023,-0.0072,-0.0072,-0.0011,-0.0007,-0.0003,-0.0,0.0002,0,-0.0408,-0.0432,-0.0501,-0.0542,-0.057,-0.0633,-0.0673,-0.0701,-0.0713,-0.0707,-0.0706,-0.0622,-0.0572,-0.0354,-0.0271,-0.01,-0.0068,-0.0027,-0.0096,-0.0066,-0.004,-0.0046,-0.0052,0.0008,0.0009,0.001,0.0011,0,-0.0436,-0.0457,-0.0501,-0.0575,-0.063,-0.069,-0.0731,-0.0738,-0.0746,-0.0756,-0.0676,-0.0577,-0.0437,-0.0309,-0.0141,-0.0031,-0.0082,0.001,0.0001,-0.0064,-0.0042,-0.0021,-0.0031,0.0023,0.0021,0.002,0.002,0,-0.0457,-0.0493,-0.0543,-0.0611,-0.0679,-0.0717,-0.0743,-0.0731,-0.0737,-0.0699,-0.0667,-0.0534,-0.0477,-0.0265,-0.0123,0.0013,0.0014,0.0005,-0.0003,-0.0016,-0.0036,-0.0012,0.0094,0,0,0,0,0,-0.0473,-0.0511,-0.0576,-0.0646,-0.0707,-0.0741,-0.0767,-0.0773,-0.0761,-0.0695,-0.0677,-0.0532,-0.0321,-0.0238,-0.0081,-0.0073,0.0029,0.0111,0.0011,0.0092,0.0077,0.0063,0,0,0,0,0,0,-0.0488,-0.0544,-0.0573,-0.0652,-0.0699,-0.0759,-0.0774,-0.0767,-0.071,-0.0682,-0.0555,-0.051,-0.0288,-0.0404,-0.0084,-0.0045,-0.0092,0.0209,0.0211,0.01,0.0087,0.0075,0.0056,0,0,0,0,0]}]]